Regional Weather Roundup
Issued by NWS Charleston, SC

Current Version | Previous Version | Graphics & Text | Print | Product List | Glossary On
Versions: 1 2 3 4 5 6 7 8 9 10 11 12 13 14 15 16 17 18 19 20 21 22 23 24 25 26 27 28 29 30 31 32 33 34 35 36 37 38 39 40 41 42 43 44 45 46 47 48 49 50
000 ASUS42 KCHS 261728 RWRCHS REGIONAL WEATHER ROUNDUP NATIONAL WEATHER SERVICE CHARLESTON SC 100 PM EDT MON SEP 26 2016 NOTE: "FAIR" INDICATES FEW OR NO CLOUDS BELOW 12,000 FEET WITH NO SIGNIFICANT WEATHER AND/OR OBSTRUCTIONS TO VISIBILITY. NOT ALL STATIONS ARE QUALITY CONTROLLED. USE DATA WITH CAUTION... ESPECIALLY DEWPOINT OBSERVATIONS. SCZ027-030-031-034>040-042>050-261800- ...SOUTHEAST SOUTH CAROLINA... CITY SKY/WX TMP DP RH WIND PRES REMARKS N CHARLESTON CLOUDY 81 70 69 NE8 30.06F WATERFRONT PRK N/A 79 73 82 SE7 30.05F MOUNT PLEASANT FAIR 79 75 89 CALM 30.06F JOHNS ISLAND FAIR 79 73 83 SE6 30.06F PINOPOLIS N/A 79 73 83 E5 30.02F MONCKS CORNER RAIN 73 70 88 E3 30.08S SUMMERVILLE TSTM 72 72 100 CALM 30.09S BEAUFORT MCAS LGT RAIN 75 73 93 CALM 30.07F FOG BEAUFORT ARPT FAIR 77 73 88 CALM 30.06S FOG HILTON HEAD IS PTSUNNY 81 75 83 E8 30.07F WALTERBORO CLOUDY 86 70 58 E12 30.07F HX 90 ALLENDALE PTSUNNY 82 70 65 E6G13 30.06F ...SOUTHERN MIDLANDS AND PEE DEE... CITY SKY/WX TMP DP RH WIND PRES REMARKS GEORGETOWN FAIR 79 72 78 E9 30.09S KINGSTREE PTSUNNY 82 68 61 CALM 30.07F ORANGEBURG PTSUNNY 82 72 71 E6 30.09F BARNWELL NOT AVBL AIKEN FAIR 81 70 69 E7 30.11F MANNING FAIR 81 72 74 E5 30.08F COLUMBIA MOSUNNY 83 70 64 E5 30.08F SUMTER PTSUNNY 83 69 64 VRB1 30.07F FLORENCE MOSUNNY 81 69 67 CALM 30.10F MYRTLE BEACH MOSUNNY N/A N/A N/A E12 30.11F N MYRTLE BEACH MOSUNNY 82 71 69 E13 30.09F $$ GAZ063-065-086>088-099>101-113>116-118-119-134>141-150-261800- ...SOUTHEAST GEORGIA... CITY SKY/WX TMP DP RH WIND PRES REMARKS SAVANNAH ARPT CLOUDY 79 74 84 CALM 30.06F HUNTER AAF CLOUDY 81 76 85 E10 30.03F FORT STEWART CLOUDY 78 74 86 NE1 30.03F STATESBORO RAIN 80 74 82 SE7 30.06F SYLVANIA NOT AVBL CLAXTON PTSUNNY 82 75 78 E6 30.05F ...CSRA...CENTRAL AND FAR SOUTHEAST GEORGIA... CITY SKY/WX TMP DP RH WIND PRES REMARKS THOMSON PTSUNNY 85 71 62 S5 30.11F HX 91 AUGUSTA-BUSH PTSUNNY 84 71 65 E9 30.06F AUGUSTA-DANIEL MOSUNNY 85 68 56 E8 30.08F SWAINSBORO CLOUDY 84 72 65 E7 30.06F VIDALIA CLOUDY 86 73 66 SE3 30.05F HX 93 EASTMAN FAIR 88 59 37 E8 30.07F HAZLEHURST FAIR 85 76 72 SW9 30.04F HX 95 ALMA PTSUNNY 85 72 65 E8 30.04F HX 91 WAYCROSS PTSUNNY 89 75 63 E13 30.03F HX 98 JESUP PTSUNNY 84 77 79 E9 30.05S HX 94 BAXLEY FAIR 86 77 74 NE9 30.04F HX 97 BRUNSWICK CLOUDY 82 73 74 NE14G20 30.04S SAINT SIMONS CLOUDY 82 70 66 NE14G23 30.03F $$ SCZ027-028-034-036>038-045-046-048>050-GAZ119-141-261800- ...LAKE AND SUPPLEMENTAL COASTAL OBSERVATIONS... STATION/POSITION TIME TEMP WIND PRES WAVE SWELL AIR SEA DIR/SP/G HT/PER HT/PER/DIR (UTC) (F) (DEG/KT/KT) (MB) (FT/S) (FT/S/D) WINYAH BAY 1630 80 70/ 12 1018.0S LAKE MURRAY 1650 81 200/ 2/ 5 1018.3F ACE BASIN NERRS 1645 79 110/ 2 1018.0F FORT PULASKI 1700 79 81 120/ 7/ 9 1018.4 SAPELO ISLAND 1700 80 60/ 11 1017.0 $$ ANZ835-935-AMZ111-154-330-350-352-354-370-450-454-472-261800- ...C-MAN AND BUOY OBSERVATIONS... STATION/POSITION TIME TEMP WIND PRES WAVE SWELL AIR SEA DIR/SP/G HT/PER HT/PER/DIR (UTC) (F) (DEG/KT/KT) (MB) (FT/S) (FT/S/D) BUOY 41004 1650 76 82 120/ 14/ 17 1017.6R 4/ 5 2/100/ 9 BUOY 41008 1650 79 82 70/ 16/ 19 1016.6F 4/ 5 2/ 90/ 9 FOLLY BEACH CMAN 1700 78 120/ 8/ 9 1018.1F CAPERS NEARSHORE 1708 79 81 140/ 6/ 10 1017.8F FRIPP NEARSHORE 1708 78 81 90/ 12/ 16 1019.9R STATION/POSITION TIME TEMP WIND PRES WAVE SWELL AIR SEA DIR/SP/G HT/PER HT/PER/DIR (UTC) (F) (DEG/KT/KT) (MB) (FT/S) (FT/S/D) 5E ST. MARYS GA 1701 82 N/A 4/ 6 FRYING PAN BUOY 1710 80 82 60/ 14/ 17 1018.1 BUOY 41025 1650 78 78 120/ 6/ 8 1019.8F 3/ 8 3/100/ 8 CAPE LOOKOUT NC 1700 76 40/ 10/ 12 1019.4F BUOY 41002 1650 80 84 80/ 19/ 23 1017.1F 6/ 7 BUOY 41010 NOT AVBL ST AUGUSTINE FL 1700 81 84 20/ 6/ 6 1016.4F $$

USA.gov is the U.S. government's official web portal to all federal, state and local government web resources and services.